Meteo pe oră la Bolshie Gridyushki

Astăzi, 8 Mai, Sâmbătă

Timp Temperatura Precipitaţii Vânt Presiune Umiditate
00:00 +3°C° 0 mm 3 m/s 740 mmHg 96%
01:00 +2°C° 0 mm 3 m/s 740 mmHg 95%
02:00 +2°C° 0 mm 2 m/s 740 mmHg 95%
03:00 +2°C° 0 mm 2 m/s 741 mmHg 96%
04:00 0°C° 0 mm 3 m/s 741 mmHg 96%
05:00 0°C° 0 mm 3 m/s 741 mmHg 96%
06:00 0°C° 0 mm 4 m/s 742 mmHg 92%
07:00 +1°C° 0 mm 4 m/s 742 mmHg 88%
08:00 +2°C° 0 mm 5 m/s 743 mmHg 83%
09:00 +3°C° 0 mm 5 m/s 743 mmHg 78%
10:00 +3°C° 0 mm 5 m/s 743 mmHg 74%
11:00 +3°C° 0 mm 5 m/s 743 mmHg 69%
12:00 +5°C° 0 mm 5 m/s 744 mmHg 63%
13:00 +6°C° 0 mm 5 m/s 744 mmHg 58%
14:00 +6°C° 0 mm 5 m/s 744 mmHg 53%
15:00 +7°C° 0 mm 5 m/s 744 mmHg 54%
16:00 +7°C° 0 mm 6 m/s 744 mmHg 55%
17:00 +7°C° 0 mm 6 m/s 745 mmHg 56%
18:00 +6°C° 0 mm 5 m/s 745 mmHg 61%
19:00 +4°C° 0 mm 4 m/s 746 mmHg 67%
20:00 +3°C° 0 mm 3 m/s 746 mmHg 73%
21:00 +2°C° 0 mm 3 m/s 746 mmHg 75%
22:00 +1°C° 0 mm 3 m/s 747 mmHg 76%
23:00 0°C° 0 mm 3 m/s 747 mmHg 78%

Mâine, 9 Mai, Duminică

Timp Temperatura Precipitaţii Vânt Presiune Umiditate
00:00 0°C° 0 mm 3 m/s 748 mmHg 79%
01:00 -1°C° 0 mm 3 m/s 748 mmHg 79%
02:00 -1°C° 0 mm 3 m/s 749 mmHg 80%
03:00 -1°C° 0 mm 3 m/s 749 mmHg 79%
04:00 -1°C° 0 mm 3 m/s 750 mmHg 79%
05:00 -1°C° 0 mm 2 m/s 750 mmHg 78%
06:00 +1°C° 0 mm 3 m/s 751 mmHg 70%
07:00 +3°C° 0 mm 3 m/s 751 mmHg 63%
08:00 +5°C° 0 mm 3 m/s 752 mmHg 55%
09:00 +7°C° 0 mm 3 m/s 752 mmHg 51%
10:00 +9°C° 0 mm 3 m/s 752 mmHg 48%
11:00 +10°C° 0 mm 3 m/s 752 mmHg 44%
12:00 +10°C° 0 mm 3 m/s 752 mmHg 44%
13:00 +11°C° 0 mm 3 m/s 752 mmHg 44%
14:00 +12°C° 0 mm 3 m/s 752 mmHg 43%
15:00 +12°C° 0 mm 3 m/s 753 mmHg 45%
16:00 +12°C° 0 mm 3 m/s 753 mmHg 47%
17:00 +12°C° 0 mm 3 m/s 753 mmHg 48%
18:00 +10°C° 0 mm 3 m/s 753 mmHg 56%
19:00 +9°C° 0 mm 3 m/s 753 mmHg 64%
20:00 +7°C° 0 mm 3 m/s 753 mmHg 71%
21:00 +7°C° 0 mm 3 m/s 753 mmHg 72%
22:00 +5°C° 0 mm 3 m/s 753 mmHg 73%
23:00 +5°C° 0 mm 3 m/s 753 mmHg 74%

Poimâine, 10 Mai, Luni

Timp Temperatura Precipitaţii Vânt Presiune Umiditate
00:00 +5°C° 0 mm 3 m/s 754 mmHg 72%
01:00 +6°C° 0 mm 4 m/s 754 mmHg 69%
02:00 +7°C° 0 mm 4 m/s 754 mmHg 67%
03:00 +6°C° 0 mm 4 m/s 754 mmHg 68%
04:00 +6°C° 0 mm 4 m/s 754 mmHg 69%
05:00 +6°C° 0 mm 4 m/s 754 mmHg 70%
06:00 +7°C° 0 mm 5 m/s 754 mmHg 69%
07:00 +9°C° 0 mm 5 m/s 755 mmHg 67%
08:00 +10°C° 0 mm 5 m/s 755 mmHg 65%
09:00 +13°C° 0 mm 6 m/s 755 mmHg 61%
10:00 +14°C° 0 mm 6 m/s 755 mmHg 58%
11:00 +16°C° 0 mm 6 m/s 755 mmHg 54%
12:00 +17°C° 0 mm 6 m/s 755 mmHg 53%
13:00 +17°C° 0 mm 5 m/s 755 mmHg 53%
14:00 +19°C° 0 mm 5 m/s 755 mmHg 52%
15:00 +19°C° 0 mm 5 m/s 755 mmHg 54%
16:00 +19°C° 0 mm 5 m/s 755 mmHg 57%
17:00 +19°C° 0 mm 4 m/s 755 mmHg 60%
18:00 +17°C° 0 mm 4 m/s 755 mmHg 67%
19:00 +14°C° 0 mm 3 m/s 755 mmHg 73%
20:00 +12°C° 0 mm 3 m/s 755 mmHg 80%
21:00 +11°C° 0 mm 3 m/s 755 mmHg 80%
22:00 +10°C° 0 mm 4 m/s 755 mmHg 80%
23:00 +10°C° 0 mm 4 m/s 756 mmHg 80%

11 Mai, Marţi

Timp Temperatura Precipitaţii Vânt Presiune Umiditate
00:00 +8°C° 0 mm 4 m/s 756 mmHg 80%
01:00 +8°C° 0 mm 4 m/s 756 mmHg 81%
02:00 +8°C° 0 mm 3 m/s 756 mmHg 81%
03:00 +7°C° 0 mm 4 m/s 756 mmHg 81%
04:00 +7°C° 0 mm 4 m/s 756 mmHg 81%
05:00 +6°C° 0 mm 4 m/s 756 mmHg 81%
06:00 +8°C° 0 mm 4 m/s 756 mmHg 74%
07:00 +10°C° 0 mm 5 m/s 756 mmHg 68%
08:00 +13°C° 0 mm 5 m/s 756 mmHg 62%
09:00 +14°C° 0 mm 5 m/s 756 mmHg 57%
10:00 +15°C° 0 mm 5 m/s 756 mmHg 51%
11:00 +17°C° 0 mm 5 m/s 756 mmHg 46%
12:00 +17°C° 0 mm 5 m/s 755 mmHg 45%
13:00 +19°C° 0 mm 5 m/s 755 mmHg 45%
14:00 +20°C° 0 mm 5 m/s 755 mmHg 44%
15:00 +19°C° 0 mm 5 m/s 755 mmHg 48%
16:00 +19°C° 0 mm 5 m/s 754 mmHg 52%
17:00 +19°C° 0 mm 5 m/s 754 mmHg 56%
18:00 +17°C° 0 mm 4 m/s 754 mmHg 62%
19:00 +14°C° 0 mm 4 m/s 754 mmHg 68%
20:00 +12°C° 0 mm 3 m/s 754 mmHg 74%
21:00 +11°C° 0 mm 3 m/s 754 mmHg 77%
22:00 +10°C° 0 mm 3 m/s 754 mmHg 79%
23:00 +9°C° 0 mm 3 m/s 754 mmHg 81%

12 Mai, Miercuri

Timp Temperatura Precipitaţii Vânt Presiune Umiditate
00:00 +9°C° 0 mm 3 m/s 754 mmHg 83%
01:00 +9°C° 0 mm 3 m/s 753 mmHg 85%
02:00 +8°C° 0 mm 3 m/s 753 mmHg 87%
03:00 +8°C° 0 mm 3 m/s 753 mmHg 88%
04:00 +8°C° 0 mm 3 m/s 753 mmHg 90%
05:00 +9°C° 0 mm 2 m/s 753 mmHg 92%
06:00 +11°C° 0 mm 3 m/s 753 mmHg 86%
07:00 +13°C° 0 mm 3 m/s 753 mmHg 81%
08:00 +15°C° 0 mm 4 m/s 753 mmHg 75%
09:00 +17°C° 0 mm 4 m/s 752 mmHg 70%
10:00 +19°C° 0 mm 5 m/s 752 mmHg 65%
11:00 +20°C° 0 mm 5 m/s 751 mmHg 59%
12:00 +20°C° 0.1 mm 6 m/s 751 mmHg 61%
13:00 +20°C° 0.1 mm 6 m/s 751 mmHg 63%
14:00 +21°C° 0.1 mm 7 m/s 750 mmHg 64%
15:00 +19°C° 0.1 mm 6 m/s 750 mmHg 68%
16:00 +17°C° 0.1 mm 6 m/s 751 mmHg 72%
17:00 +15°C° 0.1 mm 6 m/s 751 mmHg 76%
18:00 +14°C° 0 mm 5 m/s 751 mmHg 79%
19:00 +12°C° 0 mm 4 m/s 751 mmHg 82%
20:00 +11°C° 0 mm 3 m/s 751 mmHg 84%
21:00 +10°C° 0 mm 3 m/s 751 mmHg 86%
22:00 +9°C° 0 mm 3 m/s 751 mmHg 88%
23:00 +9°C° 0 mm 3 m/s 751 mmHg 90%

13 Mai, Joi

Timp Temperatura Precipitaţii Vânt Presiune Umiditate
00:00 +9°C° 0 mm 3 m/s 750 mmHg 92%
01:00 +8°C° 0 mm 2 m/s 750 mmHg 93%
02:00 +8°C° 0 mm 2 m/s 750 mmHg 95%
03:00 +8°C° 0 mm 2 m/s 749 mmHg 95%
04:00 +8°C° 0 mm 2 m/s 749 mmHg 95%
05:00 +8°C° 0 mm 2 m/s 748 mmHg 95%
06:00 +10°C° 0.1 mm 2 m/s 748 mmHg 94%
07:00 +11°C° 0.1 mm 3 m/s 747 mmHg 93%
08:00 +12°C° 0.1 mm 3 m/s 746 mmHg 92%
09:00 +13°C° 0.3 mm 4 m/s 746 mmHg 89%
10:00 +14°C° 0.3 mm 4 m/s 745 mmHg 86%
11:00 +14°C° 0.3 mm 5 m/s 745 mmHg 82%
12:00 +14°C° 0.5 mm 5 m/s 745 mmHg 82%
13:00 +13°C° 0.5 mm 5 m/s 745 mmHg 81%
14:00 +12°C° 0.5 mm 5 m/s 745 mmHg 81%
15:00 +13°C° 0.3 mm 5 m/s 745 mmHg 78%
16:00 +13°C° 0.3 mm 5 m/s 745 mmHg 75%
17:00 +14°C° 0.3 mm 5 m/s 745 mmHg 71%
18:00 +13°C° 0 mm 5 m/s 745 mmHg 74%
19:00 +12°C° 0 mm 4 m/s 745 mmHg 76%
20:00 +11°C° 0 mm 4 m/s 745 mmHg 78%
21:00 +11°C° 0 mm 3 m/s 745 mmHg 79%
22:00 +10°C° 0 mm 3 m/s 745 mmHg 81%
23:00 +10°C° 0 mm 2 m/s 745 mmHg 82%
Arată mai mult

Formular de consimțământ

Meteoprog și furnizorii noștri de servicii pot stoca și accesa date personale, precum cookies, identificatori de dispozitiv sau alte tehnologii similare pe dispozitivul dumneavoastră și procesa astfel de date pentru a personaliza conținutul și reclamele, dar și pentru a oferi caracteristici de social media și pentru a analiza traficul.

  • Stocarea și/sau accesarea informațiilor pe dispozitivul dumneavoastră

    Cookies, identificatori de dispozitiv sau alte informații pot fi stocate sau accesate pe dispozitiv în scopurile indicate mai sus.

  • Reclame și conținut personalizat, evaluarea reclamelor și a conținutului, informații despre audiențe și dezvoltarea produselor

    Reclamele și conținutul pot fi personalizate pe baza unui profil. Pot fi adăugate date suplimentare pentru a personaliza mai bine reclamele și conținutul. Performanța reclamelor și conținutului poate fi măsurată. Pot fi obținute informații despre utilizatorii care au văzut reclamele și conținutul. Aceste date pot fi utilizate pentru a dezvolta sau îmbunătăți experiența utilizatorilor, sistemele și software-ul.

Dând clic pe ‘Sunt de acord’, permiteți utilizarea cookie-urilor menționate, a identificatorilor de dispozitiv, balizelor web sau altor tehnologii similare. Setările pot fi modificate din browser-ul dispozitivului dumneavoastră.

În anumite scopuri, interesele legitime pot prima asupra consimțământului. Puteți citi mai multe informații în acest sens în Politica privind Confidențialitatea Datelor și Cookie.